FW3755 Weather Reports


time (UTC)temp
C
wind
direction
speed
KPH
gust
KPH
rain 1hr
cm
rain 24hr
cm
rain mn
cm
humidity
%
barometer
mb
20260504044934 2 202 0.0 0.0 0.00 0.00 0.00 85 1056.7
20260504044833 2 202 0.0 0.0 0.00 0.00 0.00 84 1056.6
20260504043932 2 202 0.0 0.0 0.00 0.00 0.00 84 1056.7
20260504043832 2 202 0.0 0.0 0.00 0.00 0.00 84 1056.7
20260504042833 2 202 0.0 0.0 0.00 0.00 0.00 83 1056.8
20260504041834 2 202 0.0 0.0 0.00 0.00 0.00 83 1056.6
20260504040917 2 202 0.0 0.0 0.00 0.00 0.00 84 1056.5
20260504040833 2 202 0.0 0.0 0.00 0.00 0.00 84 1056.7
20260504035837 3 202 0.0 0.0 0.00 0.00 0.00 83 1056.6
20260504034838 3 202 0.0 0.0 0.00 0.00 0.00 83 1056.6
20260504033838 3 202 0.0 0.0 0.00 0.00 0.00 82 1056.4
20260504032936 3 202 0.0 0.0 0.00 0.00 0.00 81 1056.4
20260504031937 3 202 0.0 0.0 0.00 0.00 0.00 81 1056.2
20260504031836 3 202 0.0 0.0 0.00 0.00 0.00 81 1056.2
20260504030838 3 202 0.0 0.0 0.00 0.00 0.00 80 1056.3
20260504025938 3 202 0.0 0.0 0.00 0.00 0.00 79 1056.3
20260504025838 3 202 0.0 0.0 0.00 0.00 0.00 80 1056.3
20260504024838 4 202 0.0 0.0 0.00 0.00 0.00 78 1056.3
20260504024738 4 202 0.0 0.0 0.00 0.00 0.00 79 1056.2
20260504022739 5 202 0.0 0.0 0.00 0.00 0.00 76 1056.2
20260504015835 6 202 0.0 0.0 0.00 0.00 0.00 73 1056.3
20260504014837 6 202 0.0 0.0 0.00 0.00 0.00 71 1056.1
20260504013936 6 202 0.0 0.0 0.00 0.00 0.00 69 1056.2
20260504012838 7 202 0.0 0.0 0.00 0.00 0.00 67 1056.1
20260504011837 7 202 0.0 0.0 0.00 0.00 0.00 64 1056.0
20260504010837 7 202 0.0 1.6 0.00 0.00 0.00 63 1055.9
20260504010738 7 202 0.0 0.0 0.00 0.00 0.00 62 1056.0
20260504005837 8 202 0.0 0.0 0.00 0.00 0.00 60 1056.1
20260504004836 8 202 0.0 0.0 0.00 0.00 0.00 57 1056.0
20260504004737 8 202 0.0 1.6 0.00 0.00 0.00 57 1055.9
20260504003738 9 202 0.0 1.6 0.00 0.00 0.00 55 1055.9
20260504002739 10 225 0.0 0.0 0.00 0.00 0.00 54 1055.7
20260504002639 10 225 0.0 0.0 0.00 0.00 0.00 54 1055.8
20260504001639 10 202 0.0 1.6 0.00 0.00 0.00 51 1055.6
20260504000736 11 202 1.6 1.6 0.00 0.00 0.00 48 1055.7
20260503235737 12 135 1.6 1.6 0.00 0.00 0.00 43 1055.7
20260503234737 13 202 1.6 4.8 0.00 0.00 0.00 38 1055.4
20260503233738 14 213 3.2 4.8 0.00 0.00 0.00 35 1055.2
20260503232737 14 233 8.0 11.3 0.00 0.00 0.00 34 1055.2
20260503230738 15 241 4.8 8.0 0.00 0.00 0.00 33 1055.2
20260503225836 15 227 6.4 11.3 0.00 0.00 0.00 33 1055.0
20260503225739 15 227 6.4 12.9 0.00 0.00 0.00 33 1055.2
20260503224738 15 229 11.3 16.1 0.00 0.00 0.00 33 1055.3
20260503223738 15 225 4.8 8.0 0.00 0.00 0.00 32 1055.2
20260503222836 15 201 4.8 9.7 0.00 0.00 0.00 32 1055.3
20260503221840 15 222 6.4 9.7 0.00 0.00 0.00 32 1055.1
20260503220937 15 212 4.8 6.4 0.00 0.00 0.00 32 1055.2
20260503213939 15 226 6.4 12.9 0.00 0.00 0.00 31 1055.2
20260503212937 15 231 8.0 16.1 0.00 0.00 0.00 32 1055.1
20260503211936 15 189 9.7 16.1 0.00 0.00 0.00 31 1055.0
20260503205938 15 238 8.0 14.5 0.00 0.00 0.00 30 1055.1
20260503204037 15 224 9.7 17.7 0.00 0.00 0.00 30 1055.3
20260503203938 15 221 12.9 20.9 0.00 0.00 0.00 31 1055.1
20260503202936 15 246 8.0 12.9 0.00 0.00 0.00 32 1055.3
20260503201936 15 237 14.5 22.5 0.00 0.00 0.00 33 1055.3
20260503200938 14 210 6.4 11.3 0.00 0.00 0.00 33 1055.4
20260503194938 14 232 12.9 19.3 0.00 0.00 0.00 35 1055.9
20260503194836 13 236 11.3 17.7 0.00 0.00 0.00 34 1055.9
20260503193836 13 240 8.0 20.9 0.00 0.00 0.00 33 1055.9
20260503193736 13 230 12.9 19.3 0.00 0.00 0.00 33 1055.9
20260503192737 13 211 12.9 19.3 0.00 0.00 0.00 35 1056.0
20260503190737 13 236 9.7 17.7 0.00 0.00 0.00 36 1056.0
20260503185835 13 232 9.7 14.5 0.00 0.00 0.00 35 1056.2
20260503184837 13 222 6.4 11.3 0.00 0.00 0.00 35 1056.4
20260503183935 13 239 8.0 12.9 0.00 0.00 0.00 36 1056.5
20260503182937 13 223 6.4 9.7 0.00 0.00 0.00 36 1056.7
20260503182835 12 241 11.3 22.5 0.00 0.00 0.00 36 1056.8
20260503181836 12 231 12.9 22.5 0.00 0.00 0.00 36 1056.8
20260503175836 12 218 11.3 20.9 0.00 0.00 0.00 37 1056.8
20260503175737 12 218 11.3 19.3 0.00 0.00 0.00 36 1056.7
20260503175638 12 196 3.2 6.4 0.00 0.00 0.00 35 1056.6
20260503174637 12 221 6.4 9.7 0.00 0.00 0.00 36 1056.7
20260503174537 12 237 11.3 24.1 0.00 0.00 0.00 35 1056.8
20260503174438 12 222 6.4 17.7 0.00 0.00 0.00 35 1056.7
20260503173437 12 198 9.7 20.9 0.00 0.00 0.00 36 1056.8
20260503172436 11 220 9.7 16.1 0.00 0.00 0.00 37 1057.1
20260503171435 11 319 9.7 16.1 0.00 0.00 0.00 37 1057.2
20260503170437 11 241 4.8 11.3 0.00 0.00 0.00 37 1057.2
20260503150438 9 328 4.8 9.7 0.00 0.00 0.00 43 1057.7
20260503130638 7 196 6.4 16.1 0.00 0.00 0.00 55 1057.8
20260503110436 3 225 4.8 8.0 0.00 0.00 0.00 70 1056.6
20260503100138 3 222 4.8 8.0 0.00 0.00 0.00 72 1055.3
20260503090337 3 229 1.6 4.8 0.00 0.00 0.00 72 1054.9
20260503081536 3 207 1.6 4.8 0.00 0.00 0.00 72 1054.5
20260503080535 4 230 3.2 4.8 0.00 0.00 0.00 71 1054.6
20260503071736 5 187 4.8 6.4 0.00 0.00 0.00 70 1054.1
20260503054936 5 227 1.6 4.8 0.00 0.00 0.00 72 1054.3
20260503053936 5 216 1.6 3.2 0.00 0.00 0.00 71 1054.1